N7AWM Weather Reports


time (UTC)temp
C
wind
direction
speed
KPH
gust
KPH
rain 1hr
cm
rain 24hr
cm
rain mn
cm
humidity
%
barometer
mb
20260505040002 22 328 17.7 25.7 0.00 0.00 0.00 30 1002.6
20260505034602 22 341 16.1 24.1 0.00 0.00 0.00 31 1002.5
20260505033202 22 344 16.1 29.0 0.00 0.00 0.00 31 1002.4
20260505031802 22 351 14.5 19.3 0.00 0.00 0.00 31 1002.3
20260505030402 23 349 14.5 25.7 0.00 0.00 0.00 30 1002.2
20260505025002 23 355 17.7 22.5 0.00 0.00 0.00 29 1001.9
20260505023602 25 1 19.3 32.2 0.00 0.00 0.00 27 1001.9
20260505022202 25 344 24.1 37.0 0.00 0.00 0.00 25 1002.0
20260505020802 26 337 25.7 38.6 0.00 0.00 0.00 25 1001.9
20260505015402 26 347 19.3 37.0 0.00 0.00 0.00 24 1001.9
20260505014002 26 351 22.5 35.4 0.00 0.00 0.00 25 1001.8
20260505012602 26 327 22.5 33.8 0.00 0.00 0.00 24 1001.9
20260505011202 27 347 19.3 33.8 0.00 0.00 0.00 25 1002.0
20260505005802 26 349 6.4 17.7 0.00 0.00 0.00 27 1001.9
20260505004403 27 288 1.6 4.8 0.00 0.00 0.00 27 1001.8
20260505003003 28 206 1.6 0.0 0.00 0.00 0.00 26 1001.7
20260505001603 28 226 0.0 3.2 0.00 0.00 0.00 25 1001.8
20260505000204 28 77 1.6 1.6 0.00 0.00 0.00 25 1001.8
20260504234803 28 133 3.2 8.0 0.00 0.00 0.00 28 1001.7
20260504233403 28 188 6.4 9.7 0.00 0.00 0.00 27 1001.8
20260504232003 28 131 4.8 9.7 0.00 0.00 0.00 28 1001.9
20260504230603 28 200 4.8 12.9 0.00 0.00 0.00 27 1002.0
20260504225203 27 102 4.8 12.9 0.00 0.00 0.00 28 1002.2
20260504223803 28 140 6.4 11.3 0.00 0.00 0.00 28 1002.3
20260504222403 28 136 3.2 9.7 0.00 0.00 0.00 30 1002.5
20260504221003 27 159 8.0 16.1 0.00 0.00 0.00 30 1002.7
20260504215603 27 183 6.4 14.5 0.00 0.00 0.00 28 1002.9
20260504214203 27 105 6.4 14.5 0.00 0.00 0.00 30 1003.0
20260504212803 27 173 6.4 12.9 0.00 0.00 0.00 29 1003.2
20260504211403 27 115 6.4 9.7 0.00 0.00 0.00 29 1003.4
20260504210004 27 99 3.2 11.3 0.00 0.00 0.00 27 1003.6
20260504204604 26 86 4.8 9.7 0.00 0.00 0.00 29 1003.8
20260504203204 26 148 4.8 16.1 0.00 0.00 0.00 27 1003.9
20260504201804 26 91 4.8 11.3 0.00 0.00 0.00 27 1004.0
20260504200404 26 126 6.4 14.5 0.00 0.00 0.00 29 1004.2
20260504195004 26 169 6.4 12.9 0.00 0.00 0.00 29 1004.3
20260504193604 26 131 4.8 8.0 0.00 0.00 0.00 30 1004.4
20260504192204 25 110 6.4 9.7 0.00 0.00 0.00 29 1004.6
20260504190804 25 127 6.4 12.9 0.00 0.00 0.00 34 1004.7
20260504185404 25 111 8.0 16.1 0.00 0.00 0.00 35 1004.9
20260504184004 25 148 6.4 12.9 0.00 0.00 0.00 35 1005.0
20260504182604 24 232 4.8 11.3 0.00 0.00 0.00 38 1005.0
20260504181204 24 124 3.2 8.0 0.00 0.00 0.00 39 1005.0
20260504175804 23 128 1.6 4.8 0.00 0.00 0.00 44 1005.0
20260504174404 22 127 1.6 4.8 0.00 0.00 0.00 41 1005.1
20260504173004 22 247 3.2 6.4 0.00 0.00 0.00 42 1005.1
20260504171605 21 149 3.2 6.4 0.00 0.00 0.00 44 1005.2
20260504170205 21 133 3.2 4.8 0.00 0.00 0.00 41 1005.2
20260504151005 19 90 0.0 0.0 0.00 0.00 0.00 45 1005.5
20260504130406 15 226 3.2 6.4 0.00 0.00 0.00 46 1004.4
20260504100207 15 30 0.0 1.6 0.00 0.00 0.00 54 1004.7
20260504081007 21 337 11.3 14.5 0.00 0.00 0.00 31 1004.6
20260504045408 22 326 9.7 17.7 0.00 0.00 0.00 37 1005.1
20260504044008 22 330 11.3 17.7 0.00 0.00 0.00 36 1005.1
20260504042608 21 349 8.0 11.3 0.00 0.00 0.00 40 1005.0
20260504041208 21 335 6.4 9.7 0.00 0.00 0.00 40 1004.9